Wind_Speed
6 6 4 1 1 2 2 2 3 3 3 4 6 6 5 4 5 5 4 5 4 5 5 5 5 6 6 7 6 6 6 6 6 4 4 3 4 6 7 7 7 8 9
7 5 5 3 1 2 2 2 2 2 2 3 4 5 4 4 4 4 5 4 4 4 3 4 3 4 5 5 5 5 5 4 3 2 1 2 4 6 6 7 7 9 8
7 4 4 4 2 1 1 3 3 2 2 1 2 3 3 4 4 4 4 4 3 4 3 3 3 2 2 3 3 3 3 3 2 2 2 3 4 5 6 6 7 7 7
10 6 2 2 2 1 3 4 5 5 4 3 1 0 1 2 3 2 2 3 2 2 3 2 2 2 1 0 1 1 1 2 2 2 3 1 3 5 5 5 6 8 8
12 10 6 4 4 4 4 6 6 6 6 5 4 3 2 1 1 1 1 1 1 1 0 1 2 3 3 1 1 1 2 3 3 5 5 4 3 4 4 5 7 6 7
11 11 9 7 6 7 6 7 8 8 8 7 7 6 6 5 4 3 3 3 3 4 4 3 4 3 4 4 4 4 5 6 5 6 6 6 5 5 5 6 6 6 6
13 11 10 8 7 7 9 9 9 10 10 10 10 9 9 9 8 7 6 5 6 6 6 6 6 5 5 5 5 6 7 9 8 7 8 5 7 8 8 6 6 6 6
11 12 11 8 6 7 7 8 10 11 11 12 12 12 12 12 12 11 10 10 9 9 8 8 9 9 8 8 8 7 8 11 12 10 11 8 9 8 8 8 8 7 6
11 12 15 8 8 8 7 7 7 8 11 13 14 15 16 16 16 15 14 14 14 13 12 11 11 11 11 11 11 11 11 12 13 13 15 9 11 10 9 9 9 9 8
9 9 4 18 17 19 9 10 11 8 8 9 10 13 17 18 19 19 18 19 18 18 17 16 15 15 14 14 14 14 14 14 16 13 16 11 12 12 11 11 9 9 9
13 11 10 7 6 11 7 14 10 11 10 10 12 12 12 16 18 21 20 22 22 22 22 21 20 20 20 18 18 17 17 18 17 17 19 13 14 14 14 12 11 11 10
12 15 14 13 13 16 18 16 15 10 12 12 12 10 15 16 17 18 18 21 24 24 25 25 25 24 24 24 23 22 21 21 20 21 21 17 17 16 16 15 14 12 11
13 14 16 18 18 20 23 18 17 15 16 16 16 18 17 15 20 22 21 20 21 22 24 27 28 28 27 26 28 26 25 25 25 23 25 22 21 21 20 18 17 15 13
14 15 16 19 19 22 23 20 21 22 21 20 22 21 20 20 24 18 25 26 25 24 22 24 25 25 28 31 30 29 30 30 29 30 28 26 25 24 23 23 20 18 17
18 17 18 20 20 21 22 23 23 25 26 26 26 27 26 28 28 25 27 30 29 30 26 28 27 27 28 26 27 30 32 33 33 33 34 31 25 28 27 26 25 22 20
18 17 19 21 22 23 24 25 25 25 26 27 29 30 32 33 34 34 33 33 34 35 36 36 34 33 33 32 29 27 28 30 33 36 37 36 33 31 30 29 28 27 24
13 14 16 17 16 16 18 19 19 21 22 24 25 26 27 30 33 35 37 39 39 39 41 43 41 40 40 39 36 34 31 29 31 33 37 37 36 35 34 32 31 30 28
12 11 12 13 14 15 16 17 18 18 20 21 24 25 26 28 30 31 32 33 34 36 39 42 45 46 45 43 43 43 40 38 34 33 34 35 35 36 38 37 35 33 32
12 12 12 13 14 15 18 18 20 20 22 23 24 25 27 28 30 31 33 34 36 36 36 37 39 42 44 46 48 48 46 45 44 39 38 37 35 35 36 38 38 36 34
13 14 15 16 18 19 20 21 22 23 24 25 26 27 29 29 30 31 32 33 36 39 40 41 41 40 42 43 44 48 51 50 49 47 41 41 38 34 35 36 38 38 36
14 15 18 18 19 21 21 22 23 24 24 25 28 30 32 33 33 34 34 35 36 37 39 41 43 45 44 45 48 49 46 49 55 53 49 45 44 39 35 36 35 36 38
16 17 18 21 22 23 24 27 30 32 33 35 36 37 38 39 39 39 39 40 41 42 43 43 44 45 45 47 48 49 53 51 48 50 54 52 48 46 42 37 37 34 36
17 21 22 24 26 29 33 35 36 37 38 39 39 39 39 40 41 43 45 47 47 46 46 46 45 46 48 48 48 49 51 54 52 48 47 53 53 49 47 42 38 37 35
20 26 29 30 30 33 36 39 40 42 43 42 43 43 42 43 44 46 47 48 48 47 48 47 46 46 46 47 49 51 46 48 49 52 45 48 48 51 50 52 44 39 37
25 27 30 31 32 35 39 41 44 46 46 46 46 46 47 47 48 49 48 47 47 47 47 47 47 46 44 44 47 48 50 49 46 50 53 46 45 42 46 43 49 45 40
31 32 32 34 36 40 43 47 47 47 48 48 48 49 50 51 52 51 51 48 47 47 46 47 49 50 47 40 42 46 47 46 49 46 48 49 47 48 46 49 48 39 43
Wind_Direction
18 9 5 333 210 209 198 177 116 94 81 64 58 57 67 61 49 49 58 47 56 41 51 60 67 64 58 63 71 67 67 69 75 75 67 48 27 24 28 31 38 23 16
16 5 11 13 308 248 207 172 137 120 101 74 61 61 63 70 61 50 48 51 59 35 56 63 68 81 67 65 58 66 66 58 58 71 46 3 354 17 15 21 13 7 16
16 9 9 15 7 290 248 216 178 179 160 139 85 64 55 60 56 48 51 52 35 26 39 39 46 49 93 74 70 53 52 53 53 35 12 17 340 353 9 2 8 20 31
18 11 335 348 342 263 227 214 205 204 207 220 208 175 83 81 85 85 74 73 51 34 24 23 12 16 1 196 64 72 22 343 325 324 21 334 328 350 353 5 20 25 33
10 17 2 316 303 288 259 244 235 230 229 235 242 248 257 250 216 190 187 182 201 261 251 319 324 329 344 335 272 279 287 283 300 306 304 323 327 339 334 351 356 10 22
4 13 5 349 312 295 287 266 256 250 249 252 256 262 268 272 273 268 264 258 259 255 258 269 275 291 317 317 304 282 279 286 292 293 294 301 310 310 328 336 336 345 2
342 2 357 351 340 314 286 281 275 268 262 260 261 264 267 270 273 275 275 273 269 268 270 270 270 267 267 272 281 290 290 285 287 287 290 304 293 301 307 314 320 325 335
323 339 343 338 347 342 326 297 277 273 274 271 270 270 270 270 270 270 271 272 272 273 273 270 267 267 259 255 259 263 269 278 286 288 286 289 289 292 293 295 300 303 307
302 317 341 352 353 347 342 331 317 300 283 275 274 273 271 270 270 270 271 272 272 272 274 276 276 275 271 266 261 257 255 263 273 282 283 289 287 287 288 290 290 290 287
329 338 89 332 349 321 317 331 318 318 318 306 294 286 278 274 272 271 269 270 270 271 271 270 271 273 273 274 270 266 264 259 266 275 275 284 282 283 284 284 285 284 283
229 233 259 263 261 291 291 301 305 305 309 305 309 299 300 295 285 275 271 268 269 269 271 271 270 272 273 272 273 271 268 267 268 268 269 272 274 276 277 276 276 278 279
272 274 279 283 284 290 284 282 280 287 290 294 303 307 313 300 293 294 284 276 271 269 271 271 271 270 271 272 271 272 271 269 267 268 270 268 268 267 267 269 268 269 270
278 269 264 269 271 269 270 282 284 280 277 280 279 283 284 300 301 302 288 288 285 283 278 273 272 272 270 272 273 268 267 271 270 264 269 267 260 263 265 262 262 262 259
278 274 269 267 266 268 273 280 279 280 279 279 278 279 268 274 273 280 296 296 290 284 282 283 281 276 274 276 274 276 275 272 270 270 264 265 268 265 263 264 260 259 258
277 272 269 270 271 271 274 276 275 275 276 277 275 275 273 274 279 277 283 288 292 295 283 287 286 283 286 281 280 278 276 274 273 271 270 268 265 266 263 261 262 258 256
274 268 266 268 270 272 274 275 275 274 273 273 273 273 274 274 274 275 276 276 280 283 286 285 287 287 287 285 284 280 281 277 275 273 272 269 268 265 265 263 261 259 256
269 265 264 267 270 272 273 275 275 276 275 274 274 275 275 275 275 274 274 273 271 272 274 278 282 280 283 286 284 279 280 279 278 275 275 272 269 268 266 264 263 261 258
275 268 265 267 271 275 277 278 279 278 278 278 280 281 281 279 278 278 278 277 276 273 271 270 272 276 276 276 278 278 278 276 274 276 276 276 273 268 267 266 264 262 261
272 274 273 278 282 285 291 295 298 299 296 294 293 290 286 284 283 280 278 278 278 276 272 273 272 272 271 271 270 270 272 272 273 270 271 274 275 271 265 264 264 262 261
279 285 292 297 301 302 303 305 304 303 303 303 301 299 297 297 293 289 286 283 282 281 279 275 271 271 273 273 269 266 265 264 265 267 267 269 271 271 270 265 261 261 260
281 289 295 300 302 303 306 308 308 305 303 301 301 302 301 299 296 294 293 292 290 286 281 278 276 274 269 271 271 270 264 261 261 262 264 265 267 266 266 267 263 259 258
290 297 305 307 306 307 306 308 310 308 307 307 304 303 301 300 297 296 297 296 293 289 287 285 283 279 273 269 269 270 270 264 259 260 260 261 261 262 261 262 264 259 256
298 305 312 309 311 318 322 320 315 311 309 306 304 302 300 299 298 297 295 293 292 290 288 285 283 280 279 275 270 267 268 268 267 259 255 256 258 257 259 256 256 259 257
305 313 316 316 319 319 320 319 316 314 312 310 308 306 303 301 300 300 299 296 293 290 288 287 286 284 281 278 276 273 268 268 265 266 255 257 250 255 254 256 251 251 256
312 314 313 316 314 316 316 317 314 313 313 312 310 307 305 304 303 301 298 295 293 291 290 288 286 283 281 280 278 275 275 269 263 261 259 245 245 236 240 248 251 248 249
315 319 317 315 315 316 316 316 315 313 312 310 309 308 307 306 304 303 301 298 295 293 291 290 289 288 286 279 273 272 271 271 271 264 259 252 245 241 231 241 240 246 248
Height
3183 3182 3181 3180 3179 3179 3179 3178 3179 3179 3179 3179 3179 3178 3177 3177 3176 3176 3176 3176 3175 3174 3174 3174 3174 3174 3174 3174 3173 3174 3174 3174 3173 3173 3173 3173 3173 3173 3172 3172 3171 3170 3169
3184 3183 3182 3181 3180 3180 3179 3179 3180 3180 3180 3179 3179 3179 3178 3177 3177 3176 3176 3176 3176 3175 3175 3174 3174 3174 3175 3174 3175 3175 3175 3175 3174 3174 3174 3174 3174 3173 3174 3172 3172 3171 3170
3184 3183 3183 3182 3181 3180 3180 3180 3180 3180 3180 3180 3179 3179 3178 3178 3178 3178 3177 3177 3177 3176 3176 3176 3175 3175 3175 3175 3175 3175 3175 3175 3175 3175 3174 3174 3174 3174 3173 3173 3172 3172 3171
3184 3183 3182 3181 3181 3180 3180 3180 3180 3179 3180 3180 3180 3179 3179 3178 3178 3177 3177 3177 3176 3177 3177 3177 3177 3177 3176 3176 3176 3176 3176 3176 3175 3175 3175 3174 3174 3173 3173 3173 3172 3172 3172
3184 3183 3182 3181 3181 3180 3180 3180 3180 3180 3180 3180 3180 3179 3179 3178 3178 3177 3176 3176 3176 3176 3176 3177 3177 3177 3177 3177 3177 3176 3176 3175 3176 3175 3175 3174 3174 3174 3174 3174 3173 3173 3172
3185 3184 3183 3182 3181 3181 3180 3180 3180 3180 3180 3180 3180 3180 3179 3179 3178 3178 3177 3177 3177 3176 3176 3176 3176 3177 3177 3178 3178 3177 3176 3176 3176 3176 3175 3175 3175 3174 3174 3174 3174 3173 3173
3183 3185 3183 3182 3181 3180 3180 3180 3180 3179 3179 3179 3179 3179 3179 3179 3179 3178 3178 3177 3177 3176 3176 3176 3176 3176 3176 3176 3177 3177 3177 3176 3175 3175 3174 3176 3175 3174 3174 3173 3173 3173 3173
3184 3183 3183 3182 3181 3180 3179 3178 3178 3178 3178 3178 3178 3178 3178 3178 3178 3178 3178 3177 3177 3177 3176 3176 3176 3176 3175 3175 3175 3175 3175 3175 3174 3175 3173 3174 3174 3174 3174 3174 3173 3173 3173
3183 3182 3180 3181 3180 3179 3178 3178 3177 3177 3176 3177 3177 3176 3176 3176 3176 3176 3176 3176 3176 3176 3176 3176 3175 3175 3175 3174 3174 3174 3174 3173 3172 3172 3171 3174 3173 3173 3173 3173 3173 3173 3172
3182 3183 3185 3180 3179 3179 3178 3176 3177 3176 3175 3175 3174 3174 3174 3174 3174 3174 3174 3174 3174 3174 3174 3174 3174 3173 3174 3173 3173 3173 3172 3172 3171 3171 3169 3171 3171 3171 3171 3172 3172 3171 3171
3180 3179 3179 3181 3179 3177 3174 3176 3175 3174 3174 3173 3173 3171 3171 3171 3171 3171 3171 3170 3171 3170 3170 3171 3171 3171 3171 3171 3171 3171 3171 3170 3169 3168 3167 3169 3169 3169 3169 3169 3170 3170 3170
3177 3178 3178 3177 3178 3176 3174 3174 3172 3173 3173 3172 3172 3170 3169 3168 3168 3167 3168 3167 3167 3167 3167 3167 3167 3167 3167 3167 3167 3168 3168 3167 3167 3166 3165 3166 3166 3166 3166 3166 3167 3167 3168
3175 3176 3176 3175 3175 3173 3171 3172 3172 3172 3171 3171 3170 3169 3169 3168 3165 3165 3164 3164 3163 3163 3162 3163 3162 3162 3162 3163 3162 3164 3164 3163 3163 3163 3162 3163 3163 3163 3163 3164 3164 3164 3165
3173 3172 3172 3171 3171 3170 3169 3170 3169 3169 3168 3168 3167 3167 3166 3165 3164 3164 3159 3159 3159 3159 3159 3158 3158 3158 3158 3157 3158 3157 3158 3158 3159 3158 3159 3160 3160 3160 3160 3160 3161 3162 3162
3169 3168 3168 3167 3167 3166 3165 3165 3165 3164 3163 3163 3162 3161 3162 3161 3160 3160 3159 3156 3154 3153 3153 3153 3152 3153 3152 3152 3152 3152 3152 3152 3152 3152 3153 3155 3157 3155 3156 3156 3157 3158 3158
3164 3164 3164 3163 3162 3162 3161 3160 3160 3158 3158 3157 3156 3155 3155 3155 3154 3154 3153 3153 3151 3148 3147 3146 3147 3147 3147 3146 3147 3147 3147 3147 3146 3146 3146 3148 3150 3151 3151 3152 3152 3153 3154
3161 3161 3160 3159 3158 3158 3157 3155 3155 3154 3153 3152 3151 3150 3149 3148 3147 3146 3146 3145 3145 3144 3142 3140 3140 3139 3139 3139 3139 3140 3140 3141 3141 3140 3139 3141 3144 3145 3145 3146 3147 3147 3149
3157 3157 3156 3156 3155 3154 3153 3152 3151 3150 3148 3147 3145 3145 3143 3142 3140 3139 3138 3137 3136 3135 3134 3133 3132 3131 3131 3131 3130 3132 3132 3133 3134 3134 3133 3133 3135 3138 3139 3140 3141 3142 3143
3154 3154 3154 3154 3153 3152 3150 3148 3147 3145 3143 3142 3141 3139 3137 3136 3134 3132 3131 3129 3126 3126 3126 3124 3123 3121 3121 3121 3121 3121 3121 3122 3124 3126 3126 3126 3127 3128 3131 3132 3133 3135 3137
3152 3151 3151 3150 3149 3147 3145 3144 3142 3140 3138 3136 3134 3132 3130 3128 3125 3123 3122 3120 3118 3115 3114 3113 3113 3113 3110 3110 3108 3109 3111 3111 3112 3113 3118 3118 3119 3121 3121 3123 3125 3127 3129
3149 3148 3147 3146 3144 3142 3141 3139 3137 3134 3133 3131 3128 3125 3122 3120 3117 3114 3112 3110 3108 3106 3104 3102 3101 3100 3101 3100 3096 3096 3097 3100 3101 3102 3105 3109 3109 3112 3114 3113 3117 3119 3121
3145 3144 3143 3142 3140 3137 3135 3133 3129 3126 3124 3122 3119 3117 3113 3110 3107 3105 3102 3100 3097 3095 3093 3090 3089 3087 3087 3088 3086 3084 3081 3086 3088 3093 3094 3096 3100 3100 3104 3107 3107 3110 3112
3142 3140 3139 3137 3134 3129 3126 3123 3121 3119 3117 3114 3112 3108 3105 3102 3098 3095 3092 3089 3086 3084 3081 3079 3078 3076 3074 3074 3073 3074 3071 3070 3073 3079 3082 3083 3087 3090 3092 3097 3099 3101 3103
3138 3136 3133 3130 3126 3124 3121 3117 3114 3110 3107 3105 3100 3097 3095 3091 3088 3084 3080 3077 3074 3071 3068 3066 3064 3063 3062 3062 3059 3059 3061 3061 3061 3062 3070 3072 3072 3076 3080 3084 3088 3092 3094
3134 3132 3128 3125 3123 3119 3115 3112 3107 3102 3098 3093 3089 3086 3082 3079 3075 3071 3068 3065 3061 3058 3055 3053 3052 3050 3050 3049 3048 3047 3046 3048 3050 3050 3050 3060 3062 3062 3066 3071 3074 3079 3083
3128 3125 3123 3119 3116 3113 3108 3103 3098 3093 3088 3083 3079 3074 3070 3066 3062 3058 3053 3050 3047 3043 3041 3038 3036 3034 3034 3036 3037 3035 3035 3034 3035 3039 3040 3045 3052 3051 3053 3058 3061 3067 3072